Location: ????????
(55.7667°N, 37.4833°E)
Time: 04:59:41
(UTC+00:00)

SWARM A - Pass Details

Date: 19 May 2025
Orbit: 436 x 441 km, 87.3° (Epoch: 19 June)

Event Time Altitude Azimuth Distance (km) Brightness Sun altitude
Exits shadow 19:15:53 - 182° (S) 1,613 6.6 -9.4°
Reaches altitude 10° 19:16:00 10° 182° (S) 1,566 6.5 -9.4°
Maximum altitude 19:19:24 89° 275° (W) 453 4.3 -9.6°
Drops below altitude 10° 19:22:50 10° 3° (N) 1,579 8.0 -9.9°
Sets 19:24:53 0° 4° (N) 2,455 9.1 -10.0°
